This demonstration page uses our WeatherBlox Daily Observations layout. Learn more.

Left ArrowRight Arrow

40.92945, -100.16068

Hourly Observations for February 8, 2018

Temp ( °F °C ) Dew Point ( °F °C ) Humidity (%) Winds ( mph kmh ) Pressure ( in mb ) Visibility ( mi km ) Precip ( " mm )
12:15 am 00:15 Partly Cloudy 24 -4.4 20 -6.5 85 85 WSW 3 6 30.39 1029 10 16.0934 0 0
12:35 am 00:35 Partly Cloudy 24 -4.4 20 -6.7 84 84 WSW 3 6 30.39 1029 10 16.0934 0 0
12:55 am 00:55 Clear 20 -6.4 16 -8.8 83 83 N 9 15 30.42 1030 10 16.0934 0 0
1:15 am 01:15 Partly Cloudy 18 -7.9 15 -9.7 87 87 N 7 11 30.42 1030 10 16.0934 0 0
1:35 am 01:35 Cloudy 21 -6.3 17 -8.1 87 87 Calm 30.42 1030 10 16.0934 0 0
1:55 am 01:55 Mostly Cloudy 21 -6 18 -7.9 87 87 Calm 30.39 1029 10 16.0934 0 0
2:15 am 02:15 Mostly Cloudy 22 -5.7 18 -7.6 87 87 Calm 30.39 1029 10 16.0934 0 0
2:35 am 02:35 Mostly Cloudy 20 -6.4 17 -8.4 86 86 SW 7 11 30.42 1030 10 16.0934 0 0
2:55 am 02:55 Partly Cloudy 19 -7.5 15 -9.2 88 88 SSW 6 9 30.42 1030 10 16.0934 0 0
3:15 am 03:15 Mostly Cloudy 18 -7.9 15 -9.5 88 88 Calm 30.42 1030 10 16.0934 0 0
3:35 am 03:35 Cloudy 18 -8 15 -9.6 88 88 Calm 30.42 1030 10 16.0934 0 0
3:55 am 03:55 Partly Cloudy 15 -9.7 12 -11.3 88 88 Calm 30.45 1031 7 11.26538 0 0
4:15 am 04:15 Clear with Mist and Fog 15 -9.3 13 -10.7 90 90 Calm 30.45 1031 5 8.0467 0 0
4:35 am 04:35 Clear with Mist and Fog 14 -10.2 11 -11.5 90 90 Calm 30.42 1030 3 4.82802 0 0
4:55 am 04:55 Clear with Mist and Fog 13 -10.5 11 -11.9 90 90 Calm 30.42 1030 3 4.82802 0 0
5:15 am 05:15 Clear with Mist and Fog 11 -11.5 8 -13.2 87 87 Calm 30.42 1030 3 4.82802 0 0
5:35 am 05:35 Mostly Cloudy with Freezing Fog 12 -10.9 10 -12.3 90 90 Calm 30.42 1030 0.5 0.80467 0 0
5:55 am 05:55 Partly Cloudy with Mist and Fog 10 -12.3 7 -14.1 87 87 N 3 6 30.45 1031 4 6.43736 0 0
6:15 am 06:15 Cloudy with Mist and Fog 10 -12.5 6 -14.3 87 87 NNW 7 11 30.45 1031 1.25 2.011675 0 0
6:35 am 06:35 Partly Cloudy with Mist and Fog 11 -11.5 8 -13.1 88 88 NNW 8 13 30.42 1030 5 8.0467 0 0
6:55 am 06:55 Clear 10 -12.1 7 -14 86 86 WNW 5 7 30.45 1031 10 16.0934 0 0
7:15 am 07:15 Clear 10 -12.1 6 -14.2 85 85 Calm 30.45 1031 7 11.26538 0 0
7:35 am 07:35 Clear 10 -12.3 6 -14.2 86 86 Calm 30.45 1031 10 16.0934 0 0
7:55 am 07:55 Sunny 11 -11.9 7 -13.9 85 85 W 5 7 30.45 1031 7 11.26538 0 0
8:15 am 08:15 Sunny 11 -11.8 7 -13.8 85 85 Calm 30.42 1030 7 11.26538 0 0
8:35 am 08:35 Sunny 10 -12.3 6 -14.2 86 86 Calm 30.42 1030 7 11.26538 0 0
8:55 am 08:55 Sunny 12 -11.2 8 -13.1 86 86 Calm 30.39 1029 7 11.26538 0 0
9:15 am 09:15 Sunny 13 -10.6 10 -12.4 87 87 Calm 30.42 1030 7 11.26538 0 0
9:35 am 09:35 Sunny 16 -8.7 13 -10.3 88 88 Calm 30.39 1029 7 11.26538 0 0
9:55 am 09:55 Sunny 17 -8.5 14 -10.1 88 88 Calm 30.39 1029 7 11.26538 0 0
10:15 am 10:15 Sunny 19 -7.2 16 -8.7 89 89 Calm 30.36 1028 10 16.0934 0 0
10:35 am 10:35 Sunny 20 -6.4 18 -7.8 90 90 Calm 30.33 1027 7 11.26538 0 0
10:55 am 10:55 Sunny 21 -6.3 18 -7.8 89 89 SE 3 6 30.33 1027 7 11.26538 0 0
11:15 am 11:15 Sunny 28 -2.2 24 -4.3 86 86 ESE 12 19 30.3 1026 10 16.0934 0 0
11:35 am 11:35 Sunny 28 -2 23 -4.9 81 81 ESE 14 22 30.27 1025 10 16.0934 0 0
11:55 am 11:55 Sunny 29 -1.8 23 -5 79 79 ESE 10 17 30.27 1025 10 16.0934 0 0
12:15 pm 12:15 Sunny 28 -2 23 -5.1 80 80 ESE 13 20 30.27 1025 10 16.0934 0 0
12:35 pm 12:35 Sunny 29 -1.7 23 -5 78 78 ESE 10 17 30.24 1024 10 16.0934 0 0
12:55 pm 12:55 Sunny 29 -1.6 23 -5 78 78 ESE 9 15 30.24 1024 10 16.0934 0 0
1:15 pm 13:15 Sunny 29 -1.4 24 -4.7 79 79 ESE 10 17 30.21 1023 10 16.0934 0 0
1:35 pm 13:35 Sunny 29 -1.5 23 -4.8 78 78 SE 9 15 30.18 1022 10 16.0934 0 0
1:55 pm 13:55 Sunny 29 -1.7 23 -5 78 78 ESE 10 17 30.15 1021 10 16.0934 0 0
2:15 pm 14:15 Sunny 29 -1.5 23 -5 77 77 ESE 6 9 30.15 1021 10 16.0934 0 0
2:35 pm 14:35 Sunny 29 -1.5 23 -4.9 78 78 ESE 9 15 30.15 1021 10 16.0934 0 0
2:55 pm 14:55 Sunny 29 -1.5 23 -4.8 78 78 ESE 10 17 30.15 1021 10 16.0934 0 0
3:15 pm 15:15 Sunny 29 -1.5 23 -5 77 77 SE 10 17 30.15 1021 10 16.0934 0 0
3:35 pm 15:35 Sunny 29 -1.6 23 -5 78 78 SE 9 15 30.15 1021 10 16.0934 0 0
3:55 pm 15:55 Sunny 29 -1.7 23 -5.1 78 78 SE 10 17 30.15 1021 10 16.0934 0 0
4:15 pm 16:15 Sunny 28 -2 23 -5.2 79 79 SE 13 20 30.12 1020 10 16.0934 0 0
4:35 pm 16:35 Sunny 27 -2.8 22 -5.6 81 81 SE 12 19 30.15 1021 10 16.0934 0 0
4:55 pm 16:55 Sunny 27 -3 22 -5.7 82 82 SE 9 15 30.12 1020 10 16.0934 0 0
5:15 pm 17:15 Sunny 27 -3 22 -5.5 83 83 SE 7 11 30.12 1020 10 16.0934 0 0
5:35 pm 17:35 Sunny 26 -3.2 22 -5.6 84 84 ESE 7 11 30.12 1020 10 16.0934 0 0
5:55 pm 17:55 Sunny 26 -3.4 22 -5.7 84 84 ESE 3 6 30.12 1020 10 16.0934 0 0
6:15 pm 18:15 Clear 25 -3.8 21 -6 85 85 E 5 7 30.15 1021 10 16.0934 0 0
6:35 pm 18:35 Clear 25 -4 21 -6 86 86 ESE 6 9 30.12 1020 10 16.0934 0 0
6:55 pm 18:55 Clear 24 -4.3 20 -6.4 85 85 ESE 5 7 30.12 1020 10 16.0934 0 0
7:15 pm 19:15 Clear 25 -4 21 -6.1 86 86 ESE 6 9 30.12 1020 10 16.0934 0 0
7:35 pm 19:35 Clear 24 -4.2 21 -6.1 87 87 ESE 7 11 30.12 1020 10 16.0934 0 0
7:55 pm 19:55 Clear 24 -4.4 20 -6.4 86 86 E 5 7 30.12 1020 10 16.0934 0 0
8:15 pm 20:15 Clear 23 -4.9 20 -6.7 87 87 ENE 5 7 30.12 1020 10 16.0934 0 0
8:35 pm 20:35 Clear 22 -5.7 19 -7.3 89 89 ENE 5 7 30.15 1021 10 16.0934 0 0
8:55 pm 20:55 Clear 21 -6.1 18 -7.7 89 89 NE 7 11 30.15 1021 10 16.0934 0 0
9:15 pm 21:15 Clear 21 -6.1 18 -7.7 89 89 ENE 7 11 30.15 1021 7 11.26538 0 0
9:35 pm 21:35 Clear 22 -5.8 19 -7.5 88 88 ENE 10 17 30.18 1022 7 11.26538 0 0
9:55 pm 21:55 Clear 21 -6.2 18 -7.8 89 89 NE 10 17 30.18 1022 7 11.26538 0 0
10:15 pm 22:15 Clear 21 -6.3 18 -8 88 88 ENE 10 17 30.15 1021 7 11.26538 0 0
10:35 pm 22:35 Clear 19 -7 17 -8.6 89 89 ENE 8 13 30.18 1022 7 11.26538 0 0
10:55 pm 22:55 Clear 18 -7.6 15 -9.2 88 88 E 8 13 30.18 1022 7 11.26538 0 0
11:15 pm 23:15 Clear 18 -7.7 15 -9.4 88 88 ENE 8 13 30.18 1022 7 11.26538 0 0
11:35 pm 23:35 Partly Cloudy 18 -7.8 15 -9.5 88 88 NE 10 17 30.24 1024 7 11.26538 0 0
11:55 pm 23:55 Mostly Cloudy 19 -7.5 15 -9.2 88 88 NE 13 20 30.21 1023 7 11.26538 0 0

Powered by AerisWeather